GFSSE_sfc_wetblb_159.txt.gz
Wetbulb
72.18 74.67 77.32 77.13 78.07 78.77 78.64 78.66 78.63 78.90 78.88 78.35 78.68 78.62 78.38 78.24 77.79 77.55 77.55 77.46 77.21 77.27 76.48 76.52 76.35 76.78 77.03 76.96 76.65 76.21 75.86 76.30 75.77 76.06 75.91 76.11 76.19 76.02 75.90 75.83 75.76 74.64 75.51
73.41 74.70 77.08 77.93 78.49 78.48 78.18 78.51 78.47 78.91 78.44 78.78 78.60 78.56 78.18 78.13 77.84 77.75 77.81 77.85 77.22 77.22 76.87 77.18 76.71 76.75 76.81 76.99 76.54 76.21 75.65 76.31 76.46 76.23 75.94 75.82 75.99 76.06 75.79 75.60 75.22 74.23 75.03
72.78 73.99 75.36 77.72 78.20 77.86 78.14 78.49 78.18 78.67 78.21 78.17 78.59 78.24 77.84 77.93 77.83 77.54 77.54 77.60 77.41 76.69 76.29 76.15 75.94 75.60 75.87 75.87 75.81 76.15 76.21 76.25 76.33 76.03 75.94 73.47 73.70 75.57 75.00 75.05 75.13 74.96 74.83
73.51 73.81 74.52 77.75 78.34 77.96 78.02 78.16 78.36 78.09 78.07 77.95 77.95 77.88 77.57 77.66 77.71 75.96 75.77 75.88 75.55 76.15 76.71 76.36 76.17 76.53 76.23 76.28 75.94 76.02 75.69 76.00 75.90 75.72 73.26 73.45 73.27 76.00 75.85 75.81 74.94 74.55 74.72
72.68 73.41 75.21 77.91 78.12 77.70 77.98 78.50 78.13 77.72 77.64 77.95 78.03 77.96 77.72 77.76 76.66 75.82 77.23 77.16 77.43 76.99 76.61 76.44 76.04 76.09 75.78 75.65 75.53 75.34 75.23 75.59 75.68 74.65 70.89 69.66 70.97 74.49 75.43 75.44 75.17 74.12 73.12
71.54 73.45 75.80 77.29 77.32 77.64 77.92 77.94 77.94 77.70 77.70 77.96 78.00 77.73 77.62 76.64 75.85 76.40 77.32 77.10 76.53 76.95 76.66 75.93 75.69 75.52 75.30 74.65 75.01 74.85 75.13 75.73 76.40 73.20 70.67 69.42 70.54 74.57 75.48 75.32 75.12 74.00 73.38
71.91 73.11 74.43 77.44 77.65 77.68 78.06 77.83 78.20 78.05 77.94 77.88 77.76 77.63 76.91 76.40 76.21 76.67 76.45 75.99 76.42 76.29 76.09 76.11 75.70 75.53 75.64 74.97 75.30 75.02 76.96 76.24 72.01 71.68 69.50 70.97 71.80 76.31 75.86 75.78 74.49 73.99 74.13
71.63 73.22 74.07 76.70 77.49 77.56 77.55 77.68 77.99 77.84 77.31 76.39 76.96 77.46 77.47 77.24 77.16 76.83 76.34 76.12 76.32 76.12 76.04 75.94 75.53 75.44 75.40 74.93 75.20 75.90 76.40 75.91 73.34 71.26 70.75 70.79 73.21 76.65 76.43 75.58 75.35 75.16 75.42
72.07 71.77 71.85 73.50 75.47 77.63 77.81 78.11 78.00 77.57 77.60 77.48 76.86 76.13 76.78 77.14 76.99 76.03 76.24 76.55 75.99 75.98 76.01 76.12 76.06 76.02 75.68 75.22 75.54 76.44 76.64 76.76 71.12 71.38 72.10 71.07 73.59 76.40 76.02 75.76 74.68 74.77 75.15
69.79 70.56 70.62 71.40 72.73 73.23 74.64 77.83 77.84 77.78 76.76 76.96 76.93 76.79 76.49 75.76 75.81 76.54 76.56 76.53 75.89 76.04 75.88 76.15 76.32 76.62 76.74 76.11 75.62 76.29 77.02 76.85 72.55 69.40 71.73 71.83 74.11 75.07 75.47 75.47 75.14 74.09 74.89
68.71 68.85 69.65 70.08 70.49 70.80 70.67 74.98 76.15 76.70 76.51 76.07 76.02 76.38 75.61 73.50 73.46 73.98 74.78 75.03 74.98 75.23 75.56 75.90 76.25 76.53 77.06 76.50 75.96 76.10 76.15 74.23 72.84 71.98 69.45 73.46 74.98 74.99 74.81 74.71 75.05 74.67 74.80
66.04 67.29 68.17 68.50 69.47 68.67 68.01 69.33 71.32 74.70 73.30 72.52 72.38 71.97 71.84 72.88 72.87 75.16 74.95 75.74 75.92 76.04 76.34 76.44 77.20 77.21 76.48 73.39 72.15 73.20 70.43 72.62 72.00 72.37 71.96 74.29 75.30 74.55 75.34 75.78 75.49 74.58 75.08
64.88 66.42 66.75 67.06 68.55 67.19 65.69 66.85 69.38 73.38 73.05 72.90 72.49 72.10 72.28 72.94 72.12 72.35 71.76 71.92 72.50 74.48 73.65 74.10 73.36 73.60 73.50 73.32 72.93 70.89 70.40 71.33 71.25 71.66 72.76 74.99 76.28 75.64 76.08 76.67 76.06 75.44 75.51
64.57 65.78 66.56 66.56 67.58 66.97 66.40 65.88 68.41 71.79 71.37 71.43 72.16 72.41 72.62 71.70 71.64 71.64 72.22 71.67 71.55 72.15 72.50 72.59 72.42 72.22 72.31 72.23 70.83 69.94 69.91 67.82 70.92 71.58 72.10 75.80 76.84 76.64 76.41 76.76 76.90 76.03 75.67
64.54 65.45 65.97 66.48 66.38 66.67 67.33 68.07 67.89 69.40 70.78 71.28 71.38 72.60 71.46 70.69 70.73 72.21 72.20 72.06 71.83 72.08 72.31 72.21 72.47 72.77 72.41 71.90 71.98 71.23 70.10 69.10 69.05 71.68 71.35 75.12 77.06 76.58 76.96 76.90 76.93 76.83 76.23
65.86 65.25 65.78 65.89 66.38 66.50 66.34 67.40 68.32 69.72 70.67 71.14 72.66 71.51 72.42 71.50 70.67 71.84 71.81 71.37 70.84 71.76 72.31 72.25 71.84 71.93 71.65 71.77 72.22 72.20 71.51 70.64 69.30 68.20 69.05 70.18 76.30 76.84 76.84 77.21 77.37 77.69 77.25
66.28 65.96 65.38 65.24 65.95 65.74 66.98 67.70 68.26 69.61 71.22 71.35 72.13 72.56 73.02 71.94 71.02 71.16 70.98 70.39 69.75 70.66 71.33 70.98 70.56 71.08 70.23 70.69 71.10 71.93 72.11 72.10 71.29 70.25 69.33 69.39 71.09 75.97 76.93 76.89 77.05 76.98 77.49
67.53 66.07 66.05 67.01 65.85 65.78 65.78 66.50 67.60 68.09 68.82 69.62 70.60 71.94 72.68 72.57 72.18 70.99 70.98 70.00 71.51 71.12 70.90 69.15 67.85 66.91 67.15 66.73 67.58 70.36 71.62 71.80 72.27 71.83 71.31 70.33 69.73 70.97 73.25 76.77 76.73 76.82 76.68
68.01 67.46 66.47 65.65 64.67 66.22 66.97 66.76 66.53 67.57 69.19 70.23 71.56 72.51 73.14 73.35 72.81 72.10 71.57 71.66 72.23 71.28 70.51 68.59 67.75 65.59 65.14 64.68 66.48 69.24 71.05 71.34 71.50 72.58 71.95 71.73 71.26 71.40 70.84 73.64 76.04 76.26 77.19
67.96 67.19 66.15 65.41 65.41 67.34 67.72 66.22 67.36 69.60 71.28 71.79 72.09 72.20 72.02 71.69 71.68 69.66 69.65 70.12 69.76 70.90 70.04 68.07 67.60 65.84 65.86 65.22 66.53 67.52 69.45 70.35 71.30 71.26 71.18 71.90 71.61 71.43 70.54 69.84 71.00 73.37 76.58
66.97 65.60 65.00 64.90 66.40 67.73 67.89 67.20 67.27 67.64 69.49 70.75 70.33 71.51 70.59 70.88 69.78 68.33 68.43 67.90 68.95 70.67 70.96 70.37 67.62 65.30 64.62 64.85 65.30 66.28 68.50 69.58 69.74 70.00 70.69 70.78 71.05 71.46 70.86 70.69 69.69 70.13 71.80
66.27 65.34 65.63 66.25 66.70 68.27 69.01 69.53 69.46 69.57 70.25 70.97 69.92 70.07 70.23 70.88 70.58 68.10 66.03 66.19 66.48 68.32 69.36 69.25 66.95 64.72 63.18 64.04 62.79 65.32 62.75 64.61 66.64 68.66 68.13 68.73 69.02 69.99 70.38 70.22 69.57 69.76 70.19
66.80 66.47 66.58 67.12 67.63 68.68 69.84 70.61 70.56 70.88 70.91 69.42 68.57 68.03 68.34 69.97 70.01 67.47 65.48 64.90 65.21 66.55 68.10 68.98 67.96 66.29 63.98 66.03 66.84 66.14 62.19 59.06 62.25 65.75 66.49 66.96 67.28 67.40 68.06 69.03 69.89 70.26 70.18
67.86 68.54 68.37 68.46 68.43 69.12 70.21 70.73 70.15 69.86 68.64 69.53 69.35 68.92 67.92 67.91 68.41 65.96 64.77 64.62 64.86 64.91 66.50 69.16 69.90 67.53 64.52 65.97 67.06 68.25 66.36 65.31 63.18 62.78 64.24 65.66 66.90 67.76 67.59 67.88 68.78 69.44 70.19
69.04 69.03 69.63 69.15 69.11 69.84 70.41 71.16 70.86 70.13 70.31 69.34 69.58 68.96 67.98 66.43 66.29 66.53 67.75 67.55 66.50 66.48 68.00 70.62 70.13 69.56 68.66 67.78 66.33 65.77 65.21 65.93 65.13 66.19 62.53 64.00 66.60 67.01 67.66 67.74 68.40 69.09 70.06
69.41 69.67 69.85 69.62 69.55 71.80 71.48 71.18 70.68 70.42 70.28 70.29 70.30 69.96 69.66 67.76 66.68 67.70 68.41 68.05 69.17 69.45 70.44 71.57 70.53 69.52 68.57 68.50 68.57 67.66 67.66 67.28 65.64 66.00 64.02 63.47 63.60 65.58 66.54 67.36 67.50 68.45 69.35

GFSSE_sfc_wetblb_165.txt.gz
Wetbulb
72.50 74.29 76.35 77.40 78.86 78.97 78.99 79.02 78.46 78.23 78.15 78.65 78.36 78.09 77.81 77.77 77.48 77.57 77.07 77.65 77.15 77.05 77.00 76.79 77.28 76.86 76.53 76.65 76.59 75.92 75.76 76.02 76.11 76.27 76.45 75.67 75.72 75.80 76.12 75.89 75.80 75.39 76.26
73.21 74.49 76.58 78.44 78.05 78.66 78.80 78.72 78.33 78.06 78.28 78.20 78.27 77.86 77.85 77.96 77.66 77.46 77.62 76.80 76.39 76.95 76.50 77.49 77.10 76.77 76.48 76.31 76.48 76.41 76.73 76.44 76.14 75.87 75.93 75.71 75.68 75.43 75.58 75.58 75.06 76.15 75.84
73.33 74.87 76.49 78.12 78.63 78.21 78.88 79.06 78.36 78.76 78.27 78.21 77.67 78.04 77.64 77.33 77.40 77.00 77.19 77.22 76.60 76.11 76.27 76.42 76.38 76.71 76.42 76.18 76.34 76.35 76.45 76.43 76.28 75.82 75.08 75.67 74.81 74.75 74.64 74.67 74.77 75.66 75.70
73.78 75.29 76.73 77.50 78.16 78.66 78.82 78.70 78.62 78.58 78.02 77.53 77.29 77.55 77.31 77.28 77.31 77.02 76.14 76.28 76.64 75.92 75.79 75.79 75.98 75.90 75.80 76.04 76.15 75.90 75.81 75.89 75.96 75.29 75.13 74.65 74.45 74.66 74.23 74.96 74.80 75.33 74.49
73.84 76.05 76.79 77.86 78.27 78.04 78.02 78.01 78.21 78.40 78.06 78.09 77.84 77.64 75.89 76.00 76.14 75.70 76.20 77.15 76.01 76.09 76.75 76.53 76.28 76.08 75.86 75.66 75.71 75.35 75.34 75.52 75.20 74.73 75.04 74.40 74.89 74.93 74.94 73.96 73.29 73.20 74.04
73.37 74.59 76.29 78.02 77.96 77.82 77.98 78.28 78.28 78.15 78.40 78.08 77.48 76.71 76.00 77.21 77.17 77.11 77.24 77.18 76.71 76.17 76.09 75.98 75.90 75.54 74.90 74.57 74.84 74.97 75.20 75.50 75.69 75.83 76.46 74.91 73.56 74.28 74.44 74.68 74.62 72.88 72.14
72.82 74.66 76.68 77.80 77.64 77.70 77.86 77.72 77.76 78.14 78.37 77.68 76.84 76.14 76.00 77.07 76.81 76.50 76.52 76.36 76.22 76.21 76.01 75.61 75.42 75.37 75.28 75.15 75.28 75.31 75.77 76.47 75.71 75.73 76.59 75.22 73.86 73.50 74.81 74.43 74.35 73.16 72.57
72.09 73.06 76.11 76.55 77.14 77.34 77.60 77.32 77.57 77.45 77.61 77.39 76.93 76.57 76.56 76.56 76.27 76.64 76.76 76.91 76.70 76.43 76.05 75.89 75.74 75.42 75.28 75.09 75.31 76.49 75.70 76.26 74.83 75.57 76.05 75.97 74.89 74.21 75.72 75.50 74.84 73.50 73.51
72.00 72.77 73.61 74.09 77.32 77.50 77.65 77.82 78.47 77.19 76.89 77.13 77.36 77.21 76.77 76.34 76.41 77.24 76.77 76.53 76.30 76.10 75.73 75.65 75.58 75.74 75.69 75.50 75.95 77.23 76.42 76.06 76.21 75.34 73.90 75.88 73.98 74.33 75.94 76.53 75.50 75.07 74.87
71.02 71.18 72.00 72.54 73.23 77.13 77.19 78.21 78.21 78.04 76.95 76.79 76.44 76.21 76.45 76.60 76.41 76.25 75.55 76.09 75.82 75.46 75.35 75.28 75.20 75.39 75.45 75.56 76.60 77.08 76.80 76.12 74.90 75.01 75.32 76.03 73.18 74.40 75.53 75.96 75.73 75.15 74.58
69.36 70.22 71.30 72.96 73.72 75.97 75.22 76.59 77.19 76.98 77.23 77.10 77.12 76.37 76.54 76.17 75.83 74.89 74.99 74.74 74.95 74.95 75.23 76.07 76.14 76.59 76.99 76.39 76.31 76.62 76.62 75.73 75.04 76.08 75.86 75.70 74.40 74.62 74.40 75.27 76.20 75.48 75.11
66.91 69.18 71.17 71.05 71.06 73.04 72.32 72.75 75.98 75.91 75.84 76.25 76.37 76.52 76.79 77.06 77.41 76.72 75.84 75.45 75.90 75.91 76.09 76.13 76.40 76.29 76.17 76.77 76.87 76.25 75.43 74.67 74.68 74.57 74.98 74.90 74.37 74.89 74.96 75.38 76.16 75.72 75.31
69.46 70.54 69.66 71.85 72.91 71.67 68.90 70.09 72.75 75.02 75.45 75.99 76.69 76.95 77.40 77.46 77.12 77.01 76.54 76.81 76.41 75.29 77.00 76.28 77.19 76.56 76.14 76.59 76.43 76.28 75.70 75.60 75.42 74.87 75.38 75.48 75.65 75.00 75.48 76.15 76.60 76.71 75.62
69.64 70.34 70.86 72.04 69.74 70.60 68.35 67.96 71.75 73.67 73.95 73.73 74.36 76.28 77.35 76.45 76.59 77.03 76.92 76.45 76.34 76.07 76.11 76.78 77.02 76.73 76.32 76.66 76.21 75.95 75.99 75.87 75.73 75.36 76.32 74.91 76.48 76.12 76.08 76.71 76.90 76.94 76.74
68.88 70.02 70.62 71.19 70.89 71.05 70.63 69.80 70.51 70.73 71.64 73.05 74.16 76.11 76.03 76.15 75.49 74.01 75.25 76.28 76.72 76.52 76.26 76.68 76.37 75.79 75.62 75.17 75.92 76.11 75.59 75.57 76.01 76.11 75.76 75.23 76.38 77.11 77.23 77.32 77.67 77.44 77.17
69.06 69.54 70.46 70.10 71.49 70.45 71.61 70.28 70.60 71.16 72.91 74.30 75.51 75.63 75.91 75.67 76.30 75.42 75.11 76.07 76.40 76.15 75.45 75.74 76.34 75.60 75.02 74.35 73.44 73.46 74.12 74.82 75.99 76.36 76.25 76.41 75.53 75.68 76.56 77.38 77.79 77.72 77.64
68.84 69.79 69.80 70.45 70.95 69.74 71.50 70.99 71.43 70.91 71.50 72.14 73.27 74.66 74.66 75.34 76.73 76.63 75.75 75.81 75.40 75.56 76.57 75.89 75.80 75.45 73.59 72.04 71.60 71.46 72.00 71.87 73.80 75.58 76.39 76.65 76.61 76.23 75.86 76.62 77.51 77.56 77.58
69.06 69.26 70.14 70.01 70.34 70.78 71.24 71.24 71.12 71.43 71.35 71.62 71.90 73.79 75.15 76.46 77.11 77.03 76.06 75.65 76.60 76.90 76.87 75.65 74.67 73.27 71.93 72.08 72.09 72.54 72.96 72.55 73.08 74.47 75.41 75.89 76.10 76.13 76.67 76.29 76.15 76.21 76.77
70.29 69.70 69.83 70.43 70.33 70.81 71.29 70.94 71.08 71.63 71.18 71.41 72.05 73.09 75.89 77.54 77.36 76.87 75.96 76.21 76.71 76.75 76.39 74.00 73.68 72.87 71.99 72.25 72.67 71.92 72.16 72.46 73.21 74.14 75.02 75.69 76.21 75.47 75.37 76.28 75.81 75.64 75.43
71.63 71.21 70.87 70.37 70.78 71.02 70.73 71.00 70.50 70.68 70.92 71.53 72.66 74.29 76.70 76.42 76.78 76.24 75.66 75.50 76.12 74.98 76.00 75.23 74.63 74.48 73.19 72.71 71.75 71.21 72.42 72.64 74.60 73.19 71.11 72.95 72.88 73.48 74.34 74.56 74.29 75.01 74.92
71.51 71.51 71.38 71.02 71.50 70.75 69.48 68.64 68.42 68.13 69.95 71.39 73.71 75.67 76.47 75.96 75.99 76.14 74.89 74.23 74.14 73.59 74.02 74.89 74.31 73.77 73.35 73.05 71.57 70.60 70.31 70.32 73.22 70.37 71.05 71.62 71.08 72.97 72.35 71.47 73.18 73.29 72.62
70.94 71.53 71.73 71.62 71.64 70.91 70.18 70.45 70.26 71.24 72.22 73.08 73.97 75.54 75.80 75.85 75.71 75.02 74.64 73.80 72.99 71.73 72.54 73.47 74.33 73.80 73.80 73.11 70.91 70.54 65.03 67.38 70.06 69.80 71.57 70.13 71.37 70.63 69.39 69.83 71.46 72.24 72.65
70.94 71.29 71.37 71.83 71.91 71.24 71.13 70.72 71.26 72.40 72.94 72.75 73.83 75.14 74.83 74.96 75.28 74.98 74.46 73.73 72.26 70.79 70.51 72.33 73.33 73.52 73.42 73.89 73.33 70.92 63.59 62.30 65.02 68.44 68.48 69.37 70.45 69.17 69.39 69.97 70.40 71.34 72.45
71.30 71.99 72.22 71.97 71.71 71.43 71.79 71.46 71.92 69.65 69.88 72.28 74.05 75.79 75.26 75.36 74.44 74.41 73.80 72.67 71.62 70.87 71.76 72.52 72.99 73.77 73.30 71.19 73.01 72.40 72.70 70.92 62.10 61.69 66.66 67.63 68.52 68.90 69.42 69.65 69.94 70.97 71.87
71.62 71.66 72.00 72.47 72.05 71.98 71.94 72.15 70.94 71.09 71.82 73.45 74.28 74.70 76.64 76.28 75.64 74.79 73.93 72.96 72.26 71.82 72.85 73.61 74.46 74.71 73.85 72.55 71.66 70.35 71.26 69.53 69.47 66.41 63.19 65.05 67.75 68.76 69.17 69.20 69.63 70.43 71.15
71.65 71.78 71.93 71.95 72.24 72.38 72.03 71.94 72.46 72.95 72.97 73.00 73.90 73.55 74.79 75.79 76.04 75.45 74.53 74.38 74.44 74.05 74.14 74.49 75.60 75.59 75.54 74.81 73.05 72.52 69.53 66.46 65.75 65.84 64.86 65.79 65.43 66.91 67.95 68.44 69.10 69.58 70.33

GFSSE_sfc_wetblb_168.txt.gz
Wetbulb
72.47 74.68 77.37 78.72 79.33 79.29 78.99 78.89 78.94 78.45 78.16 78.40 78.64 78.39 78.06 77.70 77.71 77.50 77.69 77.73 77.44 77.83 77.67 77.64 77.09 77.29 77.36 76.93 76.23 76.43 76.55 76.95 76.81 76.61 76.29 75.63 74.97 75.49 75.77 74.98 75.23 75.44 76.34
72.94 74.50 77.14 78.23 78.92 79.09 78.40 78.36 78.23 78.90 78.15 78.10 78.50 78.06 78.01 78.11 77.81 77.19 77.16 77.17 76.76 77.40 77.83 77.23 76.95 76.92 76.71 76.99 77.02 76.72 76.82 76.89 76.71 76.11 75.79 75.95 75.60 75.12 74.97 75.23 75.51 76.26 75.83
73.49 75.35 76.46 77.74 78.94 78.52 78.45 78.62 78.82 78.44 77.96 77.84 78.43 77.74 77.73 77.45 77.52 77.47 77.50 76.67 76.54 76.67 76.65 77.02 77.00 76.87 76.67 76.79 76.71 76.54 76.64 76.68 76.27 75.44 75.12 74.87 75.00 75.18 75.20 75.12 75.60 75.58 75.62
73.62 75.50 76.98 77.50 78.37 78.84 79.19 79.27 79.13 78.68 77.57 77.98 77.91 77.71 77.98 77.59 77.23 76.54 76.90 76.84 76.10 76.18 76.18 76.21 75.98 76.29 76.53 76.35 76.54 76.37 76.15 75.77 75.09 74.71 74.70 73.62 74.03 75.72 75.66 75.75 75.36 74.86 74.14
73.78 77.01 77.21 78.65 78.63 78.22 78.33 78.56 78.24 78.27 78.00 78.03 77.09 76.25 76.17 75.93 75.93 76.92 77.06 76.18 76.76 77.17 76.87 76.59 76.51 76.09 75.84 75.54 75.40 75.53 75.34 75.20 75.31 76.19 74.64 73.70 74.62 75.59 75.38 74.13 74.29 74.27 74.37
73.46 75.79 77.18 78.43 77.76 77.56 78.04 78.12 77.98 77.93 77.71 77.74 76.69 76.37 77.88 77.48 77.13 77.47 77.30 76.67 76.72 76.59 76.54 76.18 75.79 75.31 75.09 75.35 75.32 75.40 75.48 75.57 75.70 75.14 74.56 74.33 74.12 74.67 74.73 75.30 75.27 73.39 72.51
71.60 75.56 77.24 77.56 77.47 77.57 77.87 77.82 77.59 77.71 77.71 77.21 76.23 76.99 77.58 76.98 76.72 76.94 76.67 76.40 76.50 76.33 75.76 75.54 75.57 75.40 75.23 75.40 75.32 75.48 75.96 76.46 76.02 75.78 76.00 74.31 73.89 73.58 74.65 74.40 74.28 73.49 72.92
72.53 74.82 76.76 76.75 77.19 77.42 77.79 77.71 77.74 77.60 77.38 76.45 76.23 76.88 76.58 76.41 77.11 77.03 77.04 76.71 76.62 76.37 76.10 75.95 75.59 75.51 75.29 75.20 75.42 75.46 75.59 76.34 76.54 76.11 75.80 77.09 73.84 73.52 75.06 75.38 75.06 73.59 73.48
72.68 74.28 74.81 76.33 76.62 77.40 77.46 77.62 77.70 77.53 77.47 77.31 77.10 76.98 76.62 76.98 77.18 76.85 76.60 76.58 76.48 76.02 75.64 75.56 75.34 75.68 75.35 75.01 75.39 75.71 75.70 75.75 76.41 77.09 75.36 77.74 73.89 73.51 74.31 75.89 75.34 74.82 74.55
71.89 72.31 73.97 75.62 77.99 77.68 77.53 78.39 77.99 78.03 77.02 76.51 76.47 76.76 76.67 76.37 75.87 75.89 75.95 76.00 75.45 75.10 74.99 74.85 74.84 75.18 75.40 75.31 76.04 76.96 77.37 77.90 75.96 76.53 77.47 77.23 74.41 73.73 74.31 75.05 75.56 75.32 74.79
70.28 71.38 73.24 74.36 76.56 77.43 76.30 77.07 77.39 78.04 77.59 77.29 76.67 76.12 76.51 75.18 75.27 75.42 74.87 75.14 75.18 75.26 75.62 76.08 76.12 76.45 77.13 77.32 76.51 76.47 76.83 75.75 75.84 75.82 76.62 75.58 74.79 74.72 74.58 74.59 75.28 75.45 75.25
67.92 69.12 71.54 73.43 74.51 75.85 76.19 77.55 77.02 77.02 76.86 77.23 77.82 77.69 78.19 77.59 77.81 76.99 76.05 75.14 75.90 75.80 76.33 75.94 75.93 76.29 76.84 76.75 77.31 77.45 76.34 75.80 75.52 76.22 76.77 75.11 74.49 75.31 75.27 74.87 75.11 75.38 75.67
70.84 70.54 72.03 74.32 74.23 74.51 75.53 76.43 76.96 76.62 76.66 76.93 78.32 77.85 78.30 79.04 78.40 78.59 78.06 77.62 79.02 76.26 77.51 76.91 77.31 76.80 75.58 76.14 75.86 75.92 76.13 75.69 75.02 75.18 77.30 75.11 75.35 75.26 75.57 75.88 76.13 76.15 75.92
70.30 71.91 72.66 73.49 74.29 73.02 72.71 75.11 76.77 76.31 76.48 76.03 77.31 78.06 78.30 77.20 77.78 78.02 77.56 77.82 78.86 78.67 77.69 78.25 77.76 77.47 76.89 76.52 76.67 76.34 76.05 75.46 75.14 75.16 76.48 75.70 75.69 76.21 76.29 76.50 77.42 77.22 77.18
71.09 72.07 72.30 73.38 73.27 72.70 73.76 74.56 75.24 74.55 75.22 76.08 77.68 77.68 76.61 76.90 77.49 77.63 77.13 77.11 76.61 77.92 77.70 77.12 77.35 76.85 76.70 76.89 76.71 76.04 75.63 75.59 76.13 76.25 76.30 77.15 76.12 77.08 76.71 76.97 77.77 77.55 77.87
71.84 71.77 72.45 72.67 73.81 74.02 73.96 71.50 75.03 74.45 75.63 76.70 76.99 77.18 78.09 78.21 79.86 78.04 77.76 77.72 77.57 76.68 76.04 75.59 76.77 76.70 75.78 74.01 73.82 73.66 74.03 74.78 75.22 76.99 77.01 77.68 76.91 76.51 76.61 76.41 77.48 77.90 78.11
71.56 72.19 71.94 72.06 73.15 73.39 73.61 73.25 75.03 74.70 74.02 74.67 75.14 76.58 77.66 78.23 78.65 79.31 79.53 79.34 77.26 78.25 78.15 78.10 77.34 76.71 75.22 74.67 74.55 74.90 74.88 74.74 73.85 74.63 76.52 76.89 77.73 76.98 77.08 77.10 77.26 77.32 77.33
71.64 72.08 72.53 71.96 71.96 72.54 73.48 74.52 74.15 73.95 73.53 73.87 74.11 74.99 77.15 78.67 78.99 79.03 76.34 76.80 78.30 78.07 76.58 76.48 75.07 74.54 74.77 75.49 74.60 73.11 73.40 73.84 75.00 75.68 74.54 75.30 74.59 73.27 77.88 76.97 76.64 76.36 75.84
72.29 71.95 72.64 73.07 72.28 72.81 73.84 73.89 73.90 74.46 73.28 73.13 73.33 73.63 76.46 78.30 77.80 77.72 76.94 78.20 79.56 77.54 76.39 76.00 75.25 76.07 74.57 73.79 71.21 71.75 73.37 73.48 75.18 72.48 72.51 74.64 74.24 73.07 73.11 75.91 75.90 75.86 75.81
73.03 72.20 72.46 72.98 73.61 74.19 73.74 73.82 73.14 72.74 73.00 73.17 72.99 73.92 76.99 79.06 78.40 79.42 76.74 77.88 78.83 77.99 75.80 76.85 75.72 75.97 74.99 73.14 70.61 71.30 72.66 71.70 74.29 73.20 71.81 73.25 71.72 72.74 72.98 71.78 71.74 71.83 76.46
73.83 73.77 73.39 72.63 73.79 73.32 72.65 71.79 71.21 70.87 72.03 72.32 73.07 75.40 77.28 78.36 78.52 78.81 77.27 76.76 77.28 75.71 75.84 76.17 75.43 75.43 72.97 73.73 70.72 70.19 72.48 72.39 72.82 71.83 72.33 72.30 72.21 72.57 71.90 71.23 70.97 71.24 71.55
73.12 74.11 74.41 74.36 74.46 74.01 73.11 73.37 72.89 72.52 72.53 73.28 74.48 76.40 78.40 78.48 78.85 78.35 78.29 76.42 76.32 74.55 74.79 75.34 76.01 73.33 73.17 75.06 69.44 69.22 67.14 69.12 70.97 70.40 72.02 70.98 71.80 72.30 71.50 71.71 72.08 72.46 72.30
72.56 73.37 73.93 75.05 75.23 75.48 75.29 73.90 73.80 73.62 73.21 72.80 73.37 74.22 76.42 78.23 78.32 78.73 78.14 77.18 76.71 74.83 73.07 75.30 75.55 75.20 70.67 74.10 74.52 70.60 66.35 65.10 66.75 68.68 69.75 70.33 71.56 70.83 71.38 71.60 71.48 71.75 72.74
72.63 73.77 74.43 74.95 75.40 75.51 75.67 75.07 75.18 71.55 70.95 71.72 73.83 75.43 77.34 78.26 78.09 78.21 78.53 77.83 76.54 74.72 75.21 75.19 75.70 75.76 75.79 70.93 73.10 73.49 73.54 70.89 65.86 65.86 69.65 71.08 71.79 71.72 72.01 70.34 70.17 70.91 71.97
72.99 73.36 74.35 75.30 75.32 75.42 75.48 74.98 73.24 72.81 72.12 72.86 74.29 76.74 78.10 78.29 78.46 77.78 78.49 77.95 76.45 75.45 75.91 76.45 76.42 76.32 75.15 73.87 72.13 71.66 72.79 71.51 71.33 67.80 65.76 67.64 70.10 70.22 71.42 69.80 69.26 69.58 71.09
73.47 73.66 73.77 75.00 75.54 75.56 75.13 74.90 74.43 74.37 73.85 73.82 75.41 75.39 76.23 75.98 76.51 77.80 78.07 77.78 77.90 77.24 76.98 76.74 77.01 76.87 76.23 75.45 74.18 73.21 71.63 69.72 68.30 67.95 66.86 68.34 67.68 69.64 70.22 69.26 68.32 68.72 69.51

GFSSE_sfc_wetblb_171.txt.gz
Wetbulb
72.34 74.56 78.01 79.08 78.74 78.14 78.00 77.74 78.46 78.36 78.07 78.04 78.26 78.06 78.19 77.86 77.61 77.64 77.91 77.84 77.80 77.73 77.54 77.21 77.05 77.00 77.28 76.76 76.67 76.71 76.47 76.70 76.34 75.94 75.97 75.76 75.70 75.57 75.30 75.36 74.78 74.87 76.59
73.08 75.33 77.76 78.53 78.83 78.74 78.38 78.47 78.11 78.19 78.10 77.94 77.76 78.20 78.12 78.04 76.88 76.97 77.73 77.57 76.71 77.64 77.09 76.98 77.03 77.05 77.24 76.97 76.99 76.65 76.29 76.35 76.08 75.81 75.87 75.92 75.66 74.86 74.68 75.52 74.42 76.02 76.33
73.00 74.48 77.20 77.89 78.57 78.40 77.90 78.43 77.96 78.03 77.64 77.90 78.07 77.78 77.72 77.94 77.97 77.16 76.97 76.94 77.03 76.97 77.32 77.09 76.56 76.89 76.69 76.42 76.72 76.71 76.40 75.66 74.81 76.09 76.81 75.33 74.03 75.23 74.95 75.20 75.63 75.78 75.85
73.58 74.40 76.81 77.73 78.09 78.34 77.95 78.08 78.36 77.80 77.84 77.80 77.90 77.90 77.87 77.31 76.97 77.17 76.59 76.28 76.67 76.37 76.20 76.37 76.62 76.72 76.74 76.65 76.54 76.46 75.94 74.79 74.95 75.75 75.57 74.38 74.83 75.98 75.63 75.02 75.22 74.66 75.16
73.34 76.00 76.39 78.36 78.88 78.28 78.27 78.32 78.08 77.76 77.78 77.16 77.08 77.06 76.56 76.28 77.27 76.98 76.48 77.51 77.27 77.14 76.78 76.78 76.37 76.06 75.73 75.48 75.53 75.17 75.03 75.51 76.31 77.00 73.41 73.68 75.40 76.14 75.08 74.18 74.12 74.57 75.25
73.58 76.03 77.23 78.18 78.20 78.06 77.87 77.90 77.88 77.62 77.53 76.49 76.53 77.05 77.55 77.21 77.28 77.14 76.99 77.19 76.94 76.75 76.45 76.03 75.75 75.70 75.67 75.67 75.34 75.17 75.36 76.45 77.56 74.70 74.40 72.95 74.39 75.28 75.80 75.36 74.62 73.07 74.02
73.88 76.07 76.75 77.77 77.83 78.07 78.03 77.91 77.71 77.63 76.93 76.22 77.49 77.66 77.45 77.26 77.23 76.97 76.53 76.72 76.47 75.97 75.81 75.78 75.33 75.02 74.85 74.99 74.71 74.89 75.39 76.45 77.05 74.87 74.27 73.45 72.84 75.82 75.28 75.04 75.17 73.51 72.83
74.59 75.56 76.71 77.15 77.85 77.61 77.75 77.79 77.53 77.10 76.25 76.09 77.39 77.13 76.80 77.21 77.18 77.13 76.63 76.44 76.22 75.95 75.59 75.34 75.17 75.08 74.87 74.76 75.04 75.24 75.88 76.34 76.23 75.57 76.00 74.50 74.17 75.11 75.90 75.65 75.61 74.32 74.15
73.69 74.74 76.21 77.33 76.95 77.58 77.63 77.69 77.67 77.57 77.55 77.22 76.99 76.63 76.88 77.07 76.76 76.54 76.65 76.35 76.17 75.34 75.23 74.95 74.89 74.86 74.59 74.69 75.14 75.57 76.22 76.64 74.95 75.49 75.65 74.84 75.02 74.65 75.00 76.38 76.42 75.13 74.91
73.11 74.33 75.11 75.38 77.76 77.07 77.03 77.19 77.03 77.19 77.34 77.27 76.97 76.34 76.28 77.00 76.64 76.17 76.47 75.67 74.98 74.78 74.78 74.77 74.65 74.54 75.16 75.49 75.62 77.04 78.37 78.70 76.21 76.01 75.67 75.58 75.76 74.92 74.54 75.47 76.28 75.73 75.36
70.73 72.44 74.72 75.26 77.15 76.87 76.39 76.58 77.40 77.08 76.70 76.31 75.55 76.12 76.40 75.41 75.91 75.61 75.49 75.26 74.95 75.16 75.72 76.42 76.92 76.97 77.30 78.12 78.16 78.72 78.76 75.91 76.06 75.48 76.26 76.55 75.85 75.45 74.97 75.03 75.57 75.74 75.75
67.28 70.57 72.91 74.13 75.77 75.50 74.79 77.76 76.90 77.09 77.46 77.15 77.22 77.62 77.31 77.20 76.80 76.26 76.50 76.45 76.84 76.98 77.31 77.31 77.14 77.47 77.76 76.26 76.81 78.58 76.61 73.91 73.78 74.08 76.34 77.12 76.34 76.01 75.85 75.28 76.00 75.44 75.81
68.03 69.45 71.88 73.43 75.73 75.08 75.87 75.55 76.14 76.33 76.93 77.67 78.07 78.92 78.02 77.65 77.93 76.28 76.89 76.64 77.64 77.09 75.64 76.91 76.97 76.67 75.77 75.11 74.88 74.65 74.97 74.52 73.48 73.55 76.46 77.36 76.31 75.90 75.95 76.13 75.81 75.81 75.83
70.14 71.05 71.94 73.80 74.47 74.72 75.82 75.95 76.47 75.40 76.63 76.41 77.31 78.37 77.83 76.31 77.06 76.71 75.85 78.05 77.86 76.47 76.59 76.84 75.41 77.13 76.33 76.18 76.28 76.04 75.62 75.19 74.75 74.89 76.55 77.51 76.56 76.43 76.60 76.63 76.93 77.02 77.17
69.98 71.27 71.67 74.47 74.59 74.25 75.67 76.28 76.05 75.46 76.14 76.48 77.26 78.34 78.42 77.80 77.11 77.31 77.26 76.75 76.88 76.40 75.67 77.74 76.20 76.90 76.59 75.42 75.66 75.62 74.24 74.84 75.48 75.49 75.98 78.44 77.69 77.01 76.87 77.02 77.51 77.89 78.02
71.85 71.47 73.15 73.79 73.85 74.02 75.20 75.35 75.89 75.22 76.00 76.62 77.03 77.56 78.34 78.05 79.70 78.73 78.46 77.05 77.43 76.48 76.01 75.78 76.97 76.01 75.83 75.31 74.37 74.53 74.91 74.93 75.00 75.76 76.13 76.96 78.00 77.78 77.80 77.50 77.55 78.01 78.36
71.44 72.82 72.52 73.29 73.45 74.50 74.87 74.11 75.28 74.65 75.54 75.88 76.64 77.46 77.93 78.72 78.80 78.92 77.14 76.55 77.93 79.17 78.17 78.56 77.28 77.32 76.31 74.86 75.30 74.88 74.94 75.37 74.05 74.32 75.27 76.34 76.64 77.77 77.96 77.66 77.39 77.54 77.02
72.49 72.92 73.46 72.63 73.15 74.05 74.63 75.36 74.88 75.26 74.73 75.20 75.50 75.38 76.15 77.82 78.68 78.50 76.43 77.41 78.00 77.35 75.45 76.07 74.90 74.77 74.84 74.45 73.16 72.00 72.72 72.73 73.12 74.33 72.80 73.82 72.68 72.26 77.45 77.82 76.63 76.10 76.81
72.96 73.33 73.15 73.36 72.67 73.39 74.75 74.98 75.19 75.39 74.29 74.15 73.96 73.58 75.97 77.51 77.84 77.57 76.34 76.82 78.80 76.33 75.61 76.21 75.05 75.10 73.62 73.11 71.07 71.88 72.64 72.90 73.99 71.37 73.04 73.56 73.60 72.87 73.10 76.85 76.64 75.81 76.90
73.61 73.33 74.00 73.77 74.58 74.95 74.34 75.23 74.16 73.53 73.65 73.81 73.41 73.59 75.78 77.59 78.49 78.04 76.90 77.27 77.61 75.92 75.92 75.75 76.21 75.05 74.17 72.69 70.55 71.23 71.48 71.43 72.78 73.09 71.90 72.58 72.73 73.23 73.30 73.21 72.26 72.07 76.83
73.79 72.85 73.44 73.97 76.85 74.88 73.88 72.73 72.44 71.44 72.38 72.99 73.46 74.87 76.03 77.60 78.13 78.69 77.27 76.45 76.72 76.10 75.77 77.25 75.74 75.93 73.14 73.44 70.44 69.67 71.20 72.68 72.71 72.59 72.02 72.08 72.58 73.09 73.58 73.01 73.21 72.01 71.93
73.62 73.69 73.43 73.90 75.65 75.14 74.48 75.71 74.44 74.03 73.11 73.53 74.11 75.93 76.88 78.21 78.74 78.43 78.84 77.85 76.95 74.75 75.76 75.83 76.49 73.75 72.04 73.57 70.54 69.56 67.37 69.70 70.11 71.57 71.55 71.43 71.40 72.27 72.18 72.91 73.55 75.00 73.07
73.66 74.30 74.72 76.04 76.32 76.27 76.33 75.52 75.27 74.96 74.58 73.35 73.61 73.90 75.64 77.78 78.31 78.69 79.01 78.79 78.41 76.92 72.98 75.67 75.67 76.08 70.57 72.36 75.70 71.62 67.91 65.79 68.75 70.69 71.79 71.45 73.40 72.05 72.57 73.54 73.77 73.03 74.67
73.07 74.65 75.63 76.73 77.41 77.11 78.16 76.23 77.64 73.72 72.69 72.60 73.99 74.32 76.39 77.78 78.09 78.59 78.89 78.96 79.16 77.29 78.50 76.39 76.06 76.69 77.89 72.94 72.88 74.45 75.89 73.83 70.25 66.67 70.99 72.04 73.73 72.59 73.69 72.38 72.22 72.99 74.77
73.35 73.80 74.92 77.19 77.51 78.22 78.05 77.79 75.52 75.30 73.43 73.06 73.07 78.29 78.55 79.47 78.24 77.65 78.68 78.89 78.89 77.34 78.73 77.34 77.71 78.04 76.64 74.16 72.64 72.30 73.50 73.27 71.87 67.51 64.48 67.44 70.54 69.81 71.22 72.32 70.01 71.26 72.28
73.13 73.55 74.42 76.51 77.68 77.55 77.03 76.57 76.99 77.76 76.20 73.51 75.20 74.36 75.20 75.74 76.46 79.38 78.42 78.92 78.99 78.32 78.65 76.95 78.06 77.64 75.95 75.60 74.60 74.44 71.68 69.13 68.74 67.94 65.86 68.44 68.19 70.42 70.72 71.30 72.14 71.93 70.04

GFSSE_sfc_wetblb_174.txt.gz
Wetbulb
72.86 75.47 78.05 78.00 78.15 77.89 78.15 78.95 78.63 77.93 78.55 78.47 78.72 78.44 78.00 78.25 78.68 78.17 78.33 78.39 77.64 77.49 77.22 77.12 76.96 76.66 76.88 76.75 76.82 76.71 76.50 75.97 76.09 76.14 75.95 76.22 77.19 77.15 74.67 74.91 74.67 74.28 76.17
73.40 75.55 77.86 78.64 78.17 77.82 78.30 78.74 78.21 78.63 78.66 78.54 78.63 78.04 78.46 78.09 78.21 78.61 77.25 77.89 77.76 77.77 77.34 77.17 77.33 77.42 77.00 77.10 76.55 76.22 76.12 75.68 76.04 75.77 75.74 75.82 75.85 76.59 73.25 71.84 75.03 75.12 76.24
73.12 74.72 76.72 78.64 78.73 78.18 78.39 78.30 78.45 78.59 78.71 78.75 78.45 78.46 78.38 78.45 78.07 77.40 77.64 77.43 77.60 77.68 76.99 76.91 77.01 76.74 76.62 76.70 76.47 75.87 75.29 75.21 75.46 75.73 76.19 72.82 73.70 75.96 75.95 75.58 75.93 76.05 75.68
73.55 74.56 75.10 77.56 78.24 78.29 78.56 78.43 78.39 78.38 78.06 77.84 78.51 77.65 78.22 78.34 78.30 77.42 76.27 76.60 77.48 76.49 76.60 76.38 76.52 76.73 76.86 76.58 76.22 75.32 75.34 75.21 75.19 75.82 75.20 74.42 73.59 76.14 75.34 75.31 75.06 75.52 75.02
73.21 75.31 76.10 77.71 77.89 77.71 78.02 78.14 78.06 78.26 78.08 77.86 77.88 77.62 77.35 78.06 77.79 76.85 77.46 77.62 77.48 77.37 77.21 76.71 76.32 75.93 75.63 75.60 74.96 75.05 75.71 77.17 77.20 76.55 73.81 73.61 73.13 75.21 75.09 74.52 75.13 75.35 75.19
73.14 75.41 76.91 77.51 78.35 78.21 77.63 78.10 78.01 77.84 77.14 77.26 77.27 77.66 77.39 78.12 77.96 77.46 77.45 77.18 77.12 76.82 76.52 76.32 75.79 75.74 75.57 75.02 74.77 75.38 76.40 77.77 77.41 76.67 71.89 74.54 72.73 75.61 75.78 74.99 73.66 73.80 75.28
73.13 76.16 76.91 78.09 78.01 77.88 77.72 77.89 77.76 77.78 77.23 77.54 77.32 77.32 77.16 77.66 77.65 77.03 77.06 76.70 76.43 76.13 76.16 75.60 75.34 74.87 74.67 74.55 74.95 75.88 77.01 77.21 75.75 74.32 72.81 70.81 73.58 76.71 75.92 75.02 74.41 73.25 73.36
73.54 74.50 76.38 77.20 78.15 77.98 78.05 77.80 77.81 77.10 76.73 77.62 77.72 77.06 77.52 77.89 77.46 77.00 76.45 76.04 75.79 75.44 75.35 74.90 74.87 75.04 74.88 74.97 75.68 77.04 77.61 77.37 74.82 74.11 71.93 71.62 75.33 76.78 75.86 75.62 75.99 74.40 73.80
74.34 74.68 76.08 76.59 77.07 77.77 77.81 77.91 77.83 77.60 76.84 76.56 76.81 76.53 77.16 77.07 76.92 76.73 76.61 76.28 75.60 75.24 75.16 74.90 75.04 75.62 75.67 76.24 76.85 77.36 77.88 77.97 74.01 74.37 73.98 73.41 76.14 77.07 76.53 76.45 76.05 75.20 74.82
73.44 74.57 74.88 75.40 76.43 76.88 76.52 77.17 77.85 77.82 77.47 77.08 76.53 76.94 77.46 77.06 76.71 76.54 76.95 76.52 75.60 75.21 75.27 76.21 75.84 76.71 76.87 77.25 77.55 77.72 78.45 79.09 74.99 74.17 70.82 73.51 75.92 76.30 75.49 76.82 76.92 75.95 75.46
71.39 73.02 74.57 74.11 76.75 77.05 76.38 76.07 77.31 76.58 77.05 77.20 76.77 76.44 77.06 75.46 75.32 75.69 76.71 76.13 75.27 76.02 75.51 76.71 77.59 77.94 78.35 78.63 78.59 78.46 79.31 75.54 75.47 75.49 73.49 76.00 76.30 76.63 76.22 76.43 77.28 77.04 76.12
68.55 70.60 73.00 74.67 75.34 75.79 73.27 76.60 77.23 76.29 76.51 74.23 76.60 74.81 75.03 75.56 76.73 76.05 76.61 77.42 77.19 77.27 77.51 78.52 77.98 77.56 78.15 74.48 74.50 77.68 76.68 75.33 74.02 75.07 74.84 76.60 76.98 77.39 76.91 76.61 76.45 76.79 76.70
68.72 70.57 71.94 74.43 75.40 74.62 76.18 77.72 75.71 74.53 77.74 78.33 78.86 77.83 78.83 77.56 75.22 77.19 73.71 75.67 76.86 78.11 75.77 76.45 70.13 68.41 73.29 75.98 75.48 75.24 74.73 73.61 73.16 73.78 75.67 77.50 77.49 77.69 76.96 77.09 76.85 76.62 76.86
68.27 69.54 70.65 73.45 74.55 72.68 76.47 73.75 73.11 74.69 73.02 73.38 78.21 79.32 79.93 77.75 77.57 77.26 74.25 76.10 77.78 77.60 77.75 74.28 72.69 71.26 75.83 76.43 73.40 74.41 74.39 74.04 72.46 72.24 75.66 77.64 77.56 77.75 77.33 77.49 77.57 77.60 77.40
68.14 70.07 71.12 75.28 76.09 75.82 76.39 70.41 70.77 71.92 75.81 77.16 78.36 79.97 79.30 78.04 77.00 77.59 76.91 77.62 78.58 76.18 77.02 77.08 76.74 77.58 75.57 76.21 74.25 74.33 73.34 73.47 73.98 74.67 74.18 77.64 77.54 77.84 78.12 77.89 78.06 78.25 78.13
70.90 70.97 72.74 74.62 75.08 75.32 77.32 77.23 76.06 77.72 78.31 78.74 78.61 78.97 80.53 79.27 79.61 78.48 76.83 77.29 76.83 75.22 77.41 76.80 77.29 76.73 76.68 74.72 73.81 75.55 74.99 74.66 74.79 74.25 75.19 75.20 78.29 77.83 78.13 78.28 78.31 78.42 78.55
71.03 71.93 72.91 73.96 73.84 75.91 77.88 77.05 75.71 77.38 76.72 77.56 78.29 79.24 79.14 79.88 79.39 78.07 76.15 77.67 77.45 78.69 79.43 79.71 77.90 77.79 76.82 75.73 74.14 73.46 74.01 74.41 74.53 74.12 74.00 75.19 76.96 78.13 78.29 78.50 78.19 78.05 78.10
72.28 72.93 73.94 72.94 72.89 75.08 76.27 76.46 76.30 77.86 76.84 77.63 77.79 77.83 77.83 79.21 80.26 78.87 77.16 72.99 76.83 77.68 77.00 76.01 76.01 75.38 75.01 73.79 73.89 73.84 72.28 71.87 72.97 73.75 74.25 72.53 73.09 74.30 77.83 78.17 77.58 76.83 76.97
72.88 72.09 74.47 74.51 73.38 74.93 76.51 76.84 77.87 78.84 77.28 75.39 77.19 76.15 78.69 78.46 79.88 78.33 76.90 76.97 78.15 78.23 78.11 75.96 76.84 76.16 74.24 74.00 72.53 72.13 71.88 72.87 72.75 72.57 72.33 72.60 74.01 71.53 74.14 76.92 77.21 76.42 76.53
71.47 73.63 74.70 74.88 76.37 76.13 75.07 76.84 76.54 76.31 76.71 76.34 76.12 76.64 77.89 78.62 79.24 79.63 77.10 75.80 79.06 77.59 73.72 73.02 75.85 76.37 74.92 73.57 71.57 70.67 72.43 72.44 72.82 72.91 72.50 72.49 72.42 72.50 72.72 73.23 73.61 72.41 75.48
73.05 73.56 74.44 74.92 76.31 77.02 74.96 74.05 73.78 72.64 74.15 75.36 76.72 77.25 77.51 78.71 79.33 80.29 78.02 77.69 78.73 75.60 77.29 78.24 77.06 75.89 74.57 74.82 71.12 70.68 70.59 70.24 69.06 70.03 68.99 69.26 68.92 72.61 73.25 73.39 72.62 72.07 71.57
72.64 73.72 74.46 74.94 76.42 75.70 75.32 76.37 76.35 77.38 76.15 77.52 77.30 78.73 79.20 78.51 80.17 79.11 79.01 78.05 78.22 76.71 77.23 76.17 76.84 74.69 73.88 74.21 71.06 71.26 67.62 69.50 70.60 69.94 71.13 69.69 70.35 71.60 72.07 72.31 72.88 72.85 72.37
72.86 73.59 73.50 74.58 75.75 75.97 76.28 76.04 77.68 77.27 76.46 74.43 74.89 74.56 75.50 77.48 79.32 80.51 79.21 79.11 78.71 78.86 75.43 76.85 76.51 75.62 72.22 73.62 75.42 71.92 67.75 64.92 67.62 71.44 71.77 71.50 72.13 72.73 72.72 73.01 73.05 72.23 73.84
73.60 74.75 74.51 74.74 74.97 76.09 76.39 74.97 76.28 73.00 72.65 73.30 76.24 76.17 78.38 78.95 79.55 79.44 79.82 79.57 80.08 78.57 77.92 76.63 77.06 76.67 75.88 72.21 73.35 73.64 73.25 70.89 65.73 64.02 70.32 69.75 70.95 70.41 72.61 71.39 69.99 72.79 72.35
73.64 74.55 75.49 76.80 76.60 76.55 76.42 75.92 74.48 75.82 74.44 75.05 74.87 76.18 79.21 80.64 80.12 78.58 78.47 78.36 78.77 78.38 78.88 78.76 77.18 77.16 75.67 73.89 72.75 71.95 71.48 70.43 69.74 66.74 64.44 66.09 69.24 69.86 71.80 71.23 70.54 71.07 71.85
73.56 73.98 75.07 76.60 76.90 77.37 77.82 76.92 76.21 76.49 75.38 73.80 75.35 76.46 76.37 76.30 78.76 78.37 76.73 75.68 75.37 78.11 78.66 77.87 77.49 77.26 76.52 74.71 73.42 72.30 70.20 68.50 67.36 67.32 65.42 65.29 65.80 67.24 69.37 69.56 70.15 70.16 70.64